This demonstration page uses our WeatherBlox Daily Observations layout. Learn more.

Left ArrowRight Arrow

47.50024, -111.30081

Hourly Observations for April 27, 2018

Temp ( °F °C ) Dew Point ( °F °C ) Humidity (%) Winds ( mph kmh ) Pressure ( in mb ) Visibility ( mi km ) Precip ( " mm )
12:53 am 00:53 Clear 43 6.1 30 -1.1 60 60 SW 7 11 30.06 1018 10 16 0.00 0.00
1:53 am 01:53 Clear 43 6.1 29 -1.7 58 58 N 5 7 30.06 1018 10 16 0.00 0.00
2:53 am 02:53 Clear 44 6.7 30 -1.1 58 58 SE 3 6 30.04 1017 10 16 0.00 0.00
3:53 am 03:53 Clear 39 3.9 30 -1.1 70 70 SSW 6 9 30.05 1018 10 16 0.00 0.00
4:53 am 04:53 Clear 35 1.7 29 -1.7 78 78 SSW 9 15 30.05 1018 10 16 0.00 0.00
5:53 am 05:53 Clear 37 2.8 30 -1.1 76 76 SW 10 17 30.06 1018 10 16 0.00 0.00
6:53 am 06:53 Sunny 39 3.9 30 -1.1 70 70 SSW 7 11 30.05 1018 10 16 0.00 0.00
7:53 am 07:53 Sunny 46 7.8 34 1.1 63 63 SW 7 11 30.04 1017 10 16 0.00 0.00
8:53 am 08:53 Sunny 52 11.1 32 0 47 47 WSW 8 13 30.04 1017 10 16 0.00 0.00
9:53 am 09:53 Sunny 58 14.4 31 -0.6 36 36 Calm 30.02 1017 10 16 0.00 0.00
10:53 am 10:53 Sunny 61 16.1 36 2.2 39 39 VRB 3 6 30.00 1016 10 16 0.00 0.00
11:53 am 11:53 Sunny 64 17.8 32 0 30 30 VRB 6 9 29.98 1015 10 16 0.00 0.00
12:53 pm 12:53 Sunny 68 20 33 0.6 27 27 NE 8 13 29.97 1015 10 16 0.00 0.00
1:53 pm 13:53 Sunny 71 21.7 33 0.6 25 25 ENE 7 11 29.93 1014 10 16 0.00 0.00
2:53 pm 14:53 Sunny 74 23.3 33 0.6 22 22 E 3 6 29.89 1012 10 16 0.00 0.00
3:53 pm 15:53 Sunny 76 24.4 32 0 20 20 undefined N/A 29.86 1011 10 16 0.00 0.00
4:53 pm 16:53 Sunny 76 24.4 32 0 20 20 SE 5 7 29.85 1011 10 16 0.00 0.00
5:53 pm 17:53 Sunny 76 24.4 33 0.6 21 21 E 10 17 29.82 1010 10 16 0.00 0.00
6:53 pm 18:53 Sunny 75 23.9 33 0.6 22 22 E 9 15 29.80 1009 10 16 0.00 0.00
7:53 pm 19:53 Sunny 69 20.6 34 1.1 27 27 E 8 13 29.78 1009 10 16 0.00 0.00
8:53 pm 20:53 Clear 61 16.1 34 1.1 36 36 E 9 15 29.78 1009 10 16 0.00 0.00
9:53 pm 21:53 Clear 60 15.6 33 0.6 36 36 ESE 3 6 29.78 1008 10 16 0.00 0.00
10:53 pm 22:53 Clear 59 15 32 0 36 36 SSE 10 17 29.77 1008 10 16 0.00 0.00
11:53 pm 23:53 Clear 62 16.7 31 -0.6 31 31 S 14 22 29.76 1008 10 16 0.00 0.00

Powered by AerisWeather